EW7581 Weather Reports


time (UTC)temp
C
wind
direction
speed
KPH
gust
KPH
rain 1hr
cm
rain 24hr
cm
rain mn
cm
humidity
%
barometer
mb
20210723164458 9 67 0.0 0.0 0.00 0.20 0.00 87 1009.1
20210723163508 9 90 0.0 0.0 0.00 0.20 0.00 87 1009.1
20210723162446 9 90 0.0 0.0 0.00 0.25 0.00 87 1009.1
20210723161456 8 112 0.0 0.0 0.00 0.25 0.00 87 1009.1
20210723160515 8 112 0.0 0.0 0.00 0.25 0.00 87 1008.8
20210723155516 8 180 0.0 0.0 0.00 0.25 0.00 86 1008.8
20210723154518 8 157 0.0 0.0 0.00 0.25 0.00 86 1009.1
20210723153502 8 270 0.0 0.0 0.00 0.25 0.00 86 1008.8
20210723152450 7 202 0.0 0.0 0.00 0.25 0.00 86 1008.8
20210723151510 7 247 0.0 0.0 0.00 0.25 0.00 86 1008.4
20210723150519 7 202 0.0 0.0 0.00 0.25 0.00 86 1008.4
20210723145524 7 202 0.0 0.0 0.00 0.25 0.00 85 1008.4
20210723144457 7 112 0.0 0.0 0.00 0.25 0.00 85 1008.4
20210723143434 7 180 0.0 0.0 0.00 0.25 0.00 85 1008.4
20210723142447 6 202 0.0 0.0 0.00 0.25 0.00 85 1008.4
20210723141409 6 247 0.0 0.0 0.00 0.25 0.00 85 1008.4
20210723140353 6 247 0.0 0.0 0.00 0.25 0.00 85 1008.8
20210723135333 6 247 0.0 0.0 0.00 0.25 0.00 84 1008.8
20210723134330 6 247 0.0 0.0 0.00 0.25 0.00 84 1008.4
20210723133349 6 247 0.0 0.0 0.00 0.25 0.00 84 1008.4
20210723132359 6 247 0.0 0.0 0.00 0.25 0.00 84 1008.4
20210723131359 6 247 0.0 0.0 0.00 0.25 0.00 83 1008.4
20210723130348 6 247 0.0 0.0 0.00 0.25 0.00 83 1008.4
20210723125358 6 247 0.0 0.0 0.00 0.25 0.00 83 1008.4
20210723124350 6 247 0.0 0.0 0.00 0.25 0.00 83 1008.4
20210723123346 6 247 0.0 0.0 0.00 0.25 0.00 83 1008.4
20210723122400 6 247 0.0 0.0 0.00 0.30 0.00 82 1008.4
20210723121405 7 247 0.0 0.0 0.00 0.30 0.00 82 1008.4
20210723120338 7 247 0.0 0.0 0.00 0.30 0.00 82 1008.4
20210723115306 7 247 0.0 0.0 0.00 0.30 0.00 82 1008.4
20210723114320 7 247 0.0 0.0 0.00 0.30 0.00 82 1008.4
20210723113322 7 247 0.0 0.0 0.00 0.30 0.00 82 1008.4
20210723112311 7 247 0.0 0.0 0.00 0.30 0.00 82 1008.4
20210723111257 7 247 0.0 0.0 0.00 0.36 0.00 81 1008.1
20210723110318 8 247 0.0 0.0 0.00 0.36 0.00 81 1008.1
20210723105321 8 247 0.0 0.0 0.00 0.36 0.00 81 1008.4
20210723104304 8 247 0.0 0.0 0.00 0.36 0.00 80 1008.4
20210723103250 8 247 0.0 0.0 0.00 0.36 0.00 80 1008.1
20210723102305 8 247 0.0 0.0 0.00 0.36 0.00 80 1008.1
20210723101228 8 247 0.0 0.0 0.00 0.41 0.00 80 1008.1
20210723100206 9 247 0.0 0.0 0.00 0.41 0.00 79 1008.1
20210723095157 9 247 0.0 0.0 0.00 0.41 0.00 79 1008.1
20210723094144 9 247 0.0 0.0 0.00 0.41 0.00 78 1008.4
20210723093115 10 247 0.0 0.0 0.00 0.46 0.00 78 1008.4
20210723092041 10 225 0.0 0.0 0.00 0.46 0.00 78 1008.4
20210723091005 10 90 0.0 0.0 0.00 0.46 0.00 77 1008.1
20210723090018 11 247 0.0 0.0 0.00 0.46 0.00 77 1008.4
20210723085016 11 247 0.0 0.0 0.00 0.46 0.00 76 1008.1
20210723084010 11 247 0.0 0.0 0.00 0.46 0.00 76 1008.1
20210723083031 11 247 0.0 0.0 0.00 0.46 0.00 76 1008.1
20210723082016 12 225 0.0 0.0 0.00 0.46 0.00 75 1008.4
20210723081027 12 247 0.0 0.0 0.00 0.46 0.00 74 1008.4
20210723075954 12 157 0.0 0.0 0.00 0.46 0.46 73 1008.1
20210723074940 13 157 0.0 0.0 0.00 0.46 0.46 73 1008.1
20210723073944 13 270 0.0 0.0 0.00 0.46 0.46 70 1008.1
20210723072941 13 270 0.0 0.0 0.00 0.46 0.46 70 1008.1
20210723071958 14 157 0.0 0.0 0.00 0.46 0.46 68 1007.7
20210723070934 15 112 0.0 0.0 0.00 0.46 0.46 68 1007.7
20210723065944 15 135 0.0 0.0 0.00 0.46 0.46 66 1007.7
20210723064937 15 157 0.0 0.0 0.00 0.46 0.46 65 1007.7
20210723063934 16 112 0.0 0.0 0.00 0.46 0.46 63 1007.4
20210723062948 16 135 0.0 6.4 0.00 0.46 0.46 62 1007.4
20210723062000 17 157 3.2 3.2 0.00 0.46 0.46 61 1007.4
20210723060931 17 67 0.0 0.0 0.00 0.46 0.46 59 1007.4
20210723055910 18 45 1.6 1.6 0.00 0.51 0.46 59 1007.4
20210723054858 19 315 0.0 0.0 0.00 0.51 0.46 57 1007.1
20210723053852 19 180 0.0 0.0 0.00 0.51 0.46 58 1007.1
20210723052909 18 67 1.6 6.4 0.00 0.51 0.46 60 1006.7
20210723051854 17 90 6.4 6.4 0.00 0.51 0.46 61 1006.7
20210723050901 17 90 1.6 6.4 0.00 0.51 0.46 61 1006.7
20210723045900 18 90 4.8 6.4 0.00 0.51 0.46 61 1006.7
20210723044838 18 67 3.2 4.8 0.00 0.51 0.46 60 1006.4
20210723043832 18 112 1.6 1.6 0.00 0.51 0.46 60 1006.4
20210723042816 19 112 3.2 4.8 0.00 0.51 0.46 60 1006.4
20210723041821 19 0 1.6 1.6 0.00 0.51 0.46 61 1006.4
20210723040827 19 90 0.0 0.0 0.00 0.51 0.46 61 1006.4
20210723035815 19 45 1.6 1.6 0.00 0.51 0.46 61 1006.4
20210723034817 19 45 1.6 1.6 0.00 0.56 0.46 62 1006.4
20210723033824 19 45 0.0 0.0 0.00 0.56 0.46 63 1006.4
20210723032828 19 180 0.0 1.6 0.00 0.56 0.46 64 1006.0
20210723031844 19 90 0.0 0.0 0.00 0.56 0.46 67 1006.0
20210723030834 20 0 0.0 0.0 0.00 0.56 0.46 67 1006.0
20210723025810 19 22 0.0 0.0 0.00 0.61 0.46 68 1006.0
20210723024741 19 0 0.0 0.0 0.00 0.61 0.46 67 1006.0
20210723023749 20 157 1.6 3.2 0.00 0.61 0.46 67 1006.0
20210723022716 19 0 4.8 6.4 0.00 0.61 0.46 67 1006.0
20210723021711 19 337 1.6 1.6 0.00 0.61 0.46 68 1005.7
20210723020712 19 270 6.4 8.0 0.00 0.61 0.46 67 1006.0
20210723015701 19 90 3.2 8.0 0.00 0.61 0.46 66 1005.7
20210723014636 19 22 1.6 1.6 0.00 0.61 0.46 66 1005.7
20210723013635 20 315 0.0 1.6 0.00 0.61 0.46 65 1005.7
20210723012614 20 270 1.6 9.7 0.00 0.66 0.46 65 1006.0
20210723011629 19 22 8.0 9.7 0.00 0.66 0.46 67 1006.0
20210723010639 19 270 0.0 4.8 0.00 0.66 0.46 68 1006.0
20210723005651 19 180 0.0 0.0 0.00 0.71 0.46 69 1006.0
20210723004622 19 22 0.0 0.0 0.00 0.71 0.46 70 1006.0
20210723003634 19 315 0.0 1.6 0.00 0.76 0.46 72 1006.0
20210723002639 18 292 1.6 1.6 0.00 0.76 0.46 73 1006.0
20210723001609 18 157 1.6 1.6 0.00 0.81 0.46 73 1006.0
20210723000621 18 22 1.6 4.8 0.00 0.81 0.46 74 1006.0
20210722235638 18 292 0.0 0.0 0.00 0.86 0.46 75 1006.0
20210722234655 18 0 1.6 3.2 0.00 0.86 0.46 77 1006.0
20210722233655 18 90 1.6 3.2 0.00 0.91 0.46 78 1005.7
20210722232653 17 90 0.0 0.0 0.00 0.97 0.46 78 1006.0
20210722231641 17 0 0.0 0.0 0.00 0.97 0.46 79 1005.7
20210722230615 17 45 1.6 1.6 0.00 1.07 0.46 79 1005.7
20210722225630 17 0 0.0 0.0 0.00 1.07 0.46 80 1006.0
20210722224558 17 337 0.0 4.8 0.00 1.17 0.46 82 1005.7
20210722223557 17 90 0.0 0.0 0.00 1.17 0.46 83 1005.7
20210722222605 16 337 0.0 0.0 0.00 1.22 0.46 83 1006.0
20210722221615 16 337 0.0 1.6 0.00 1.27 0.46 85 1006.0
20210722220629 16 67 0.0 1.6 0.00 1.27 0.46 86 1006.0
20210722215557 16 135 0.0 0.0 0.00 1.27 0.46 87 1005.7
20210722214603 15 67 1.6 1.6 0.00 1.35 0.46 86 1005.7
20210722213546 15 0 1.6 4.8 0.00 1.35 0.46 87 1005.7
20210722212556 15 0 0.0 0.0 0.00 1.40 0.46 87 1005.7
20210722211603 15 22 0.0 1.6 0.00 1.40 0.46 87 1005.7
20210722210547 15 315 0.0 1.6 0.00 1.45 0.46 87 1005.7
20210722205512 15 45 0.0 1.6 0.00 1.45 0.46 87 1005.7
20210722204448 15 22 1.6 1.6 0.00 1.45 0.46 88 1005.7
20210722203450 15 90 0.0 0.0 0.00 1.45 0.46 89 1005.7
20210722202418 15 112 0.0 0.0 0.05 1.45 0.46 89 1005.7
20210722201412 14 315 0.0 0.0 0.05 1.45 0.46 90 1005.7
20210722200427 14 67 0.0 0.0 0.05 1.45 0.46 90 1005.4
20210722195420 14 135 1.6 1.6 0.05 1.45 0.46 90 1005.4
20210722194407 14 45 0.0 0.0 0.05 1.45 0.46 90 1005.4
20210722193414 14 45 0.0 0.0 0.10 1.45 0.46 90 1005.4
20210722192401 13 135 0.0 0.0 0.05 1.40 0.41 91 1005.4
20210722191332 13 22 0.0 0.0 0.05 1.40 0.41 91 1005.4
20210722190342 13 45 0.0 0.0 0.05 1.40 0.41 91 1005.4
20210722185343 13 135 0.0 0.0 0.05 1.40 0.41 91 1005.0
20210722184349 13 90 0.0 0.0 0.05 1.40 0.41 91 1005.0
20210722183315 13 157 0.0 1.6 0.05 1.35 0.36 92 1005.0
20210722182256 13 67 0.0 0.0 0.05 1.35 0.36 92 1005.0
20210722181316 13 45 1.6 1.6 0.05 1.35 0.36 92 1005.0
20210722180322 13 90 0.0 0.0 0.05 1.35 0.36 92 1005.0
20210722175329 12 157 0.0 0.0 0.10 1.35 0.36 92 1005.0
20210722174345 12 112 0.0 0.0 0.10 1.35 0.36 92 1004.7
20210722173313 12 67 0.0 0.0 0.05 1.27 0.30 92 1004.7
20210722172305 12 90 0.0 0.0 0.10 1.27 0.30 92 1004.7
20210722171259 12 67 1.6 1.6 0.10 1.27 0.30 92 1004.7
20210722170233 12 112 0.0 0.0 0.05 1.22 0.25 92 1004.4
20210722165237 12 112 0.0 0.0 0.05 1.22 0.25 92 1004.4